COSMOS 1867

Last updated on Mon Sep 21 2026 00:02:08 GMT+0000 (Coordinated Universal Time)

1 18187U 87060A 26263.35337846 -.00000074 00000+0 99949-5 0 9990 2 18187 65.0093 121.5392 0018615 280.7390 79.1599 14.31524245 47803
UTC large
Height (km)
Speed (km/s)
/
Latitude / Longitude
Inclination (degrees)
Orbital Period (minutes)
Azimuth
Elevation
Range (km)
Doppler Factor

Next 0 passes for location: London (51.5072 / 0.1276)

No passes found over London.
COSMOS 1867